Location: Marysville Observatory
(48.1092°N, 122.1645°W)
Time: 12:37:06
(UTC-08:00)

Daily predictions for brighter satellites

Satellite Brightness Start Highest point End
(mag) Time Altitude Azimuth Time Altitude Azimuth Time Altitude Azimuth
BREEZE-M DEB (TANK) 2.0 18:16:46 10° WNW 18:18:57 63° SSW 18:22:48 10° ESE
Cosmos 1340 2.7 18:18:59 10° NNW 18:22:49 90° W 18:26:36 10° S
SL-16 R/B 3.9 18:21:48 10° N 18:25:16 16° NE 18:28:42 10° ENE
COSMO-SKYMED 1 2.6 18:21:35 10° NNE 18:25:59 84° ESE 18:30:19 10° SSW
Cosmos 1602 3.9 18:24:15 10° S 18:28:02 54° E 18:31:53 10° NNE
BREEZE-M DEB (TANK) 2.8 18:26:10 10° WNW 18:28:48 83° SSW 18:34:55 10° ESE
Cosmos 407 Rocket 4.3 18:32:34 10° SW 18:37:45 56° WNW 18:43:01 10° NNE
Resurs 01 Rocket 2.1 18:35:47 10° SE 18:39:50 37° ENE 18:43:55 10° N
Cosmos 1741 Rocket 4.3 18:35:10 10° S 18:40:07 46° ESE 18:45:07 10° NNE
Meteor 1-28 Rocket 3.5 18:40:06 10° N 18:43:55 74° WNW 18:47:44 10° SSW
Cosmos 1833 4.3 18:38:34 10° SSW 18:44:16 88° WNW 18:49:57 10° NNE
Cosmos 676 Rocket 4.5 18:40:58 10° SSW 18:46:08 65° WNW 18:51:23 10° NNE
NOAA 12 4.3 18:41:58 10° SSE 18:47:18 80° WSW 18:52:40 10° NNW
Cosmos 1140 Rocket 3.4 18:43:17 10° SSW 18:48:26 86° ESE 18:53:38 10° NNE
Genesis I 4.5 18:44:52 10° NW 18:48:38 43° WSW 18:52:22 10° SSE
Cosmos 2333 Rocket 2.6 18:43:16 10° NNW 18:48:50 47° NE 18:54:21 10° SE
Cosmos 614 Rocket 3.9 18:44:03 10° S 18:49:04 68° ESE 18:54:07 10° NNE
Cosmos 1633 2.7 18:45:30 10° SSW 18:49:10 78° W 18:52:52 10° N
Cosmos 1980 4.2 18:44:19 10° NNW 18:49:38 39° NE 18:54:45 11° ESE
Resurs 1-3 4.0 18:45:58 10° SE 18:50:03 40° ENE 18:54:10 10° N
Meteor 1-11 Rocket 3.8 18:44:32 10° S 18:50:22 76° E 18:56:20 10° NNE
FENGYUN 3A 3.6 18:49:53 10° SSE 18:55:16 69° ENE 19:00:40 10° N
Cosmos 1570 Rocket 4.2 18:50:15 10° NNW 18:55:29 75° WSW 19:00:43 10° SSE
Cosmos 1818 4.4 18:50:55 10° WSW 18:56:13 51° NW 19:01:35 10° NNE
Cosmos 1238 Rocket 3.5 18:54:17 10° NNW 18:57:08 42° W 18:59:59 10° SSW
Okean 1 Rocket 3.0 18:53:27 10° S 18:57:56 80° E 19:02:26 10° NNE
Cosmos 1892 Rocket 4.1 18:54:08 10° N 18:58:10 36° ENE 19:02:12 10° SE
Cosmos 1025 Rocket 3.0 18:55:54 10° N 19:00:18 69° E 19:04:41 10° SSE
USA 186 3.0 19:03:14 20° NE 19:03:14 20° NE 19:05:00 10° NNE
Cosmos 468 Rocket 4.1 18:58:11 10° NNW 19:03:20 54° ENE 19:08:30 10° SE
SL-19 R/B 4.4 19:03:57 10° SSE 19:09:44 79° ENE 19:16:00 10° NNW
Spot 2 Rocket 3.4 19:07:29 10° SSE 19:12:32 75° ENE 19:17:38 10° NNW
USA 229 DEB 4.0 19:06:36 10° NW 19:13:43 75° SW 19:20:56 10° SSE
USA 229 4.0 19:06:42 10° NW 19:13:49 76° SW 19:21:02 10° SSE
Cosmos 2074 Rocket 3.9 19:10:32 10° S 19:16:45 73° E 19:23:02 10° NNE
Meteor 1-5 Rocket 4.3 19:12:18 10° S 19:18:12 68° E 19:24:01 10° NNE
SL-08 ROCKET BODY 4.4 19:12:51 10° S 19:19:03 83° E 19:25:17 10° N
Cosmos 405 Rocket 2.8 19:15:45 10° N 19:19:48 63° ENE 19:23:47 10° SSE
Spot 1 4.0 19:17:28 14° SE 19:20:46 54° ENE 19:24:55 10° N
Cosmos 332 Rocket 4.4 19:16:40 10° N 19:21:12 36° ENE 19:22:54 28° E
FengYun 1-2 T 4.4 19:16:21 10° S 19:21:50 77° WSW 19:27:23 10° NNW
SJ-6B 4.2 19:18:20 10° S 19:22:05 41° W 19:25:48 10° NNW
HJ-1C 4.1 19:19:42 10° S 19:23:01 56° W 19:26:22 10° NNW
Cosmos 2184 Rocket 3.9 19:17:01 10° S 19:23:17 78° E 19:29:33 10° NNE
Cosmos 1814 Rocket 4.0 19:19:25 10° NNW 19:24:33 61° ENE 19:28:10 19° SE
Cosmos 1544 Rocket 3.8 19:21:15 10° SSE 19:25:18 41° E 19:29:23 10° NNE
ERS-1 Rocket 4.1 19:25:09 24° ENE 19:25:35 24° ENE 19:29:36 10° N
NOSS 3-1 (A) 4.1 19:19:01 10° NW 19:26:17 61° NE 19:31:36 23° ESE
USA 215 4.0 19:20:31 12° NE 19:26:20 48° NNW 19:32:33 10° W
Meteor 2-13 Rocket 4.4 19:21:06 10° S 19:27:00 57° E 19:33:00 10° NNE
H-2A R/B 2.7 19:24:07 10° S 19:27:50 82° WSW 19:31:39 10° NNW
Aureole 2 Rocket 4.0 19:25:43 10° N 19:27:34 20° NNE 19:27:34 20° NNE
CZ-2D R/B 3.1 19:25:01 10° SSE 19:28:48 77° ENE 19:32:39 10° N
Cosmos 1850 Rocket 4.3 19:23:44 10° SSW 19:29:01 70° WNW 19:34:24 10° NNE
Envisat 3.5 19:27:13 28° ESE 19:29:07 38° ENE 19:33:49 10° N
Cosmos 371 Rocket 4.0 19:26:27 10° N 19:30:55 34° ENE 19:31:49 32° E
ALOS 3.0 19:26:48 10° S 19:31:23 55° W 19:36:01 10° NNW
ATLAS 2AS CENTAUR R/B 3.9 19:24:07 10° NW 19:31:27 35° NNE 19:35:33 22° ENE
USA 32 4.4 19:27:54 10° N 19:32:52 40° ENE 19:34:42 30° ESE
Cosmos 2237 Rocket 2.1 19:28:55 10° NNW 19:34:39 72° ENE 19:38:22 22° SE
Cosmos 1602 Rocket 4.4 19:32:39 10° N 19:36:16 32° ENE 19:36:16 32° ENE
Nadezhda 3 Rocket 3.9 19:31:03 10° N 19:37:12 66° ENE 19:43:20 10° SSE
NOSS 0 Rocket 3.9 19:31:28 10° NNW 19:37:39 83° WSW 19:43:18 12° SSE
COSMOS 2428 4.0 19:33:37 10° NW 19:38:54 40° WSW 19:44:10 10° S
Okean 2 3.7 19:35:02 10° NNW 19:39:10 67° W 19:43:19 10° S
Cosmos 1066 Rocket 4.3 19:34:10 10° N 19:39:40 50° ENE 19:42:03 31° SE
Cosmos 2297 Rocket 3.2 19:35:12 10° SSE 19:38:27 26° SE 19:38:27 26° SE
Cosmos 1626 Rocket 4.2 19:37:27 10° N 19:41:19 37° ENE 19:41:19 37° ENE
Abrixas rocket 2.5 19:39:38 10° WSW 19:42:42 53° S 19:42:42 53° S
NOSS 3-1 (C) 4.0 19:36:45 10° NW 19:44:12 85° NE 19:49:43 23° SE
Helios 1B rocket 2.4 19:42:02 10° NNE 19:46:10 57° ESE 19:50:14 10° S
Cosmos 2219 Rocket 2.7 19:41:07 10° NW 19:46:38 60° WSW 19:52:08 10° S
Meteor 1-12 Rocket 4.4 19:41:32 10° S 19:47:19 53° E 19:53:01 10° NNE
Cosmos 1441 Rocket 3.2 19:44:43 10° N 19:48:40 62° ENE 19:48:42 62° E
Helios 1A 3.0 19:46:45 20° S 19:49:35 81° WSW 19:53:47 10° NNW
Gbstr 26 Del rocket 2.7 19:46:35 10° WSW 19:50:20 72° NNW 19:50:51 61° NE
Cosmos 2341 Rocket 4.1 19:45:39 10° SSE 19:51:48 54° E 19:58:01 10° NNE
Cosmos 2154 Rocket 3.9 19:46:30 10° S 19:52:47 71° E 19:59:07 10° NNE
SAR-Lupe-1 4.4 19:53:25 33° S 19:54:51 63° WSW 19:58:25 10° NNW
SAR-Lupe-4 4.3 19:53:33 21° S 19:55:44 52° WSW 19:59:16 10° NNW
Cosmos 1939 Rocket 3.6 19:56:55 39° NNE 19:56:55 39° NNE 19:59:48 10° N
Cosmos 1486 Rocket 4.1 19:52:37 10° S 20:03:56 - NNE 19:57:38 50° ESE
Cosmos 1437 3.3 19:55:27 10° NNW 19:58:43 58° W 19:58:48 58° WSW
Cosmos 2219 3.9 19:53:10 10° SW 19:58:48 56° WNW 20:04:28 10° NNE
Cosmos 2227 Rocket 2.2 19:54:52 10° S 20:00:23 56° ESE 20:02:45 33° NE
Cosmos 1455 Rocket 2.9 19:58:21 10° S 20:02:43 83° E 20:07:06 10° N
CZ-4B DEB 4.2 20:04:34 32° NNW 20:04:34 32° NNW 20:06:25 10° NNW
Cosmos 841 Rocket 3.3 20:00:32 10° NNW 20:05:43 78° ENE 20:06:40 59° SE
H-2A R/B 4.0 20:11:53 17° NNE 20:11:53 17° NNE 20:13:53 10° NNE
SL-16 R/B 2.1 20:04:56 10° NNW 20:10:36 63° ENE 20:11:12 59° E
Cosmos 1763 Rocket 3.6 20:11:05 10° NNW 20:16:13 72° WSW 20:17:39 47° S
Resurs 01 Rocket 3.8 20:12:44 10° SSW 20:16:25 25° W 20:20:06 10° NW
Cosmos 540 Rocket 4.0 20:15:03 10° NNW 20:19:04 43° NNE 20:19:04 43° NNE
Meteor 2-8 Rocket 4.3 20:14:30 10° N 20:20:37 90° W 20:22:57 40° S
Cosmos 962 Rocket 4.3 20:16:39 10° S 20:22:50 88° E 20:29:01 10° N
Meteor 2-19 Rocket 4.3 20:25:16 67° ESE 20:25:26 67° E 20:31:34 10° NNE
GEOS 3 Rocket 3.6 20:30:37 59° NNE 20:31:37 80° NW 20:36:54 10° SW
Cosmos 2333 Rocket 3.7 20:27:51 10° NW 20:32:57 34° WSW 20:37:09 14° SSW
SPOT 5 4.2 20:43:25 31° N 20:43:25 31° N 20:46:15 10° N
Cosmos 2082 4.2 20:57:13 10° SW 21:10:44 - NNE 21:02:17 57° W
ERS-1 Rocket 3.9 21:05:09 45° WNW 21:05:09 45° WNW 21:09:01 10° NNW
SL-8 Rocket 4.2 21:06:49 68° NW 21:06:49 68° NW 21:12:33 10° N
Envisat 4.5 21:07:25 30° WSW 21:08:12 32° W 21:12:45 10° NNW
USA 215 4.0 21:07:52 40° NNE 21:08:38 42° N 21:14:40 10° WNW
Cosmos 2237 Rocket 4.3 21:14:03 10° NW 21:18:06 20° W 21:20:16 16° SW
ATLAS 2AS CENTAUR R/B 3.0 21:15:30 10° NW 21:23:00 75° N 21:23:00 75° N
Cosmos 2297 Rocket 4.0 21:18:26 10° SW 21:31:53 - NNE 21:20:30 22° WSW
Cosmos 2227 Rocket 3.9 21:39:50 10° WSW 21:44:47 30° NW 21:44:55 30° NW
H-2A R/B 4.2 21:52:30 22° NNW 21:52:30 22° NNW 21:54:23 10° NNW
SL-16 R/B 4.2 21:49:50 10° NW 21:53:07 22° W 21:53:07 22° W
